Regional Weather Roundup
Issued by NWS Bismarck, ND

Home | Current Version | Previous Version | Text Only | Print | Product List | Glossary On
Versions: 1 2 3 4 5 6 7 8 9 10 11 12 13 14 15 16 17 18 19 20 21 22 23 24 25 26 27 28 29 30 31 32 33 34 35 36 37 38 39 40 41 42 43 44 45 46 47 48 49 50
294
ASUS43 KBIS 190910
RWRBIS

NWR BROADCAST TEXT
NATIONAL WEATHER SERVICE BISMARCK ND
300 AM CST THU JAN 19 2017

NOTE: "FAIR" INDICATES FEW OR NO CLOUDS BELOW 12,000 FEET WITH NO
SIGNIFICANT WEATHER AND/OR OBSTRUCTIONS TO VISIBILITY.


CITY           SKY/WX    TMP DP  RH WIND       PRES   REMARKS
WILLISTON      FAIR      22  20  92 S3        29.53R
MINOT          FAIR      32  25  75 S8        29.50F
MINOT AFB      FAIR      26  22  84 S6        29.49F WCI  20
BISMARCK       FAIR      14   8  77 E3        29.57F
DICKINSON      FAIR      23  17  78 W3        29.51S
GARRISON         N/A     20  16  84 N3        29.53S
HETTINGER ARPT FAIR      19  15  84 NW5       29.56S WCI  12
JAMESTOWN      FAIR      24  18  77 S6        29.58R WCI  17
CARRINGTON     FAIR      28  19  69 S9        29.58S WCI  20
HAZEN            N/A    N/A N/A N/A CALM      29.56F
MANDAN         FAIR      19  16  86 S8        29.56F WCI   9
RUGBY            N/A     23  19  86 S6        29.54R WCI  16
STANLEY        FAIR      30  25  80 SW5       29.52R
TIOGA          FAIR      25  25 100 CALM      29.52S
WATFORD CITY   FAIR      18  16  93 CALM      29.53R
$$

CITY           SKY/WX    TMP DP  RH WIND       PRES   REMARKS
GRAND FORKS    FAIR      27  19  72 S14       29.60S WCI  16
GRAND FORKS AF FAIR      24  18  78 S12       29.59R WCI  13
DEVILS LAKE    FAIR      29  21  72 S6        29.56S
FARGO          FAIR      28  25  88 S13       29.65R WCI  17
CAVALIER         N/A     25  21  86 CALM      29.56R
GRAFTON        FAIR      23  21  93 S9G15     29.60R WCI  13
GWINNER        FAIR      19  19 100 S9        29.64R WCI   9
ROLLA            N/A    N/A N/A N/A MISG        N/A
$$

CITY           SKY/WX    TMP DP  RH WIND       PRES   REMARKS
ABERDEEN       FOG       19  15  84 SW5       29.65R VSB 1/4 WCI  12
MOBRIDGE       FAIR      15  10  80 CALM      29.58R
BUFFALO          N/A     29  19  66 W3        29.48S
RAPID CITY     FAIR      28  20  71 NW8       29.55F WCI  20
GLASGOW        FAIR      25  20  81 SE7       29.48S WCI  17
SIDNEY         FAIR      20  17  88 S6        29.53R WCI  12
WOLF POINT     FAIR      15  10  80 CALM      29.52S
GLENDIVE       FAIR      20  15  81 S6        29.53S WCI  12
MILES CITY     FAIR      26  18  71 SE9       29.54S WCI  17
BAKER          FAIR      16  11  80 SE6       29.54F WCI   7
$$

CITY           SKY/WX    TMP DP  RH WIND       PRES   REMARKS
BILLINGS       FAIR      36  19  50 SW22      29.53F
GREAT FALLS    FAIR      41  25  53 S17       29.46F
REGINA         CLEAR     30  27  86 SW8       29.41S
ESTEVAN        PTCLDY    25  21  86 S10       29.48S WCI  15
$$





USA.gov is the U.S. government's official web portal to all federal, state and local government web resources and services.